Overview Statistics Trail Chart Weather Telemetry Raw packets
 

This is the latest recevied weather packets stored in our database for station/object KD7AWQ. If no packets are shown the sender has not sent any weather packets the latest 10 day(s).

<< 89 90 91 92 93 94 95 >>
Time Temp. Humidity Pressure Rain* Wind** Luminosity Snow
1787782346 34.44° C 18% 1187.3 hPa 0 mm - 209 W/m² -
1787782041 33.89° C 18% 1187.1 hPa 0 mm - 212 W/m² -
1787781736 33.89° C 21% 1187.5 hPa 0 mm - 221 W/m² -
1787781434 33.33° C 19% 1187.4 hPa 0 mm - 244 W/m² -
1787781134 32.22° C 21% 1187.7 hPa 0 mm - 217 W/m² -
1787780832 32.22° C 23% 1187.7 hPa 0 mm - 201 W/m² -
1787780527 32.22° C 24% 1187.7 hPa 0 mm - 164 W/m² -
1787780223 31.11° C 23% 1188 hPa 0 mm - 138 W/m² -
1787779918 31.67° C 26% 1187.7 hPa 0 mm - 125 W/m² -
1787779618 33.33° C 19% 1188.6 hPa 0 mm - 117 W/m² -
1787779312 33.89° C 23% 1188.6 hPa 0 mm - 120 W/m² -
1787779012 35.56° C 23% 1188 hPa 0 mm - 122 W/m² -
1787778708 36.11° C 16% 1187.8 hPa 0 mm - 139 W/m² -
1787778404 36.67° C 19% 1187.8 hPa 0 mm - 163 W/m² -
1787778099 37.22° C 15% 1187.7 hPa 0 mm - 185 W/m² -
1787777798 37.78° C 13% 1187.7 hPa 0 mm - 208 W/m² -
1787777495 38.33° C 13% 1187.7 hPa 0 mm - 220 W/m² -
1787777189 38.33° C 14% 1187.8 hPa 0 mm - 514 W/m² -
1787776888 38.89° C 13% 1187.7 hPa 0 mm - 897 W/m² -
1787776587 38.33° C 14% 1187.8 hPa 0 mm - 964 W/m² -
1787776286 37.78° C 14% 1188 hPa 0 mm - 1058 W/m² -
1787775985 38.33° C 15% 1188 hPa 0 mm - 1113 W/m² -
1787775680 38.33° C 14% 1188.1 hPa 0 mm - 1068 W/m² -
1787775378 37.78° C 15% 1188 hPa 0 mm - 1075 W/m² -
1787775073 37.78° C 15% 1188 hPa 0 mm - 1131 W/m² -

* Rain latest hour (hover to see other rain measurements)
** Current wind speed in m/s (hover to see current wind gust speed)